Location: Unspecified
(0.0000°N, 0.0000°E)
Time: 00:53:46
(UTC+00:00)

Altair - All Passes

Search period start: 26 May 2019 00:00
Search period end: 05 June 2019 00:00
Orbit: 1501 x 1683 km, 47.2° (Epoch: 24 May)

Date Brightness Start Highest point End Pass type
(mag) Time Alt. Az. Time Alt. Az. Time Alt. Az.
26 May - 01:54:24 10° W 02:01:45 24° NW 02:09:18 10° N visible
26 May - 10:34:23 10° N 10:42:43 32° NE 10:50:44 10° ESE daylight
26 May - 12:38:01 10° NW 12:47:18 55° SW 12:56:19 10° SSE daylight
26 May - 21:24:13 10° SSE 21:26:35 11° SE 21:28:58 10° ESE night (unlit)
26 May - 23:22:11 10° SSW 23:31:43 67° SE 23:41:34 10° NE visible
27 May - 01:28:43 10° W 01:36:30 27° NW 01:44:30 10° N visible
27 May - 10:09:31 10° N 10:17:30 28° NE 10:25:12 10° ESE daylight
27 May - 12:12:41 10° NW 12:22:09 61° SW 12:31:19 10° SSE daylight
27 May - 22:57:09 10° SSW 23:06:32 60° SE 23:16:15 10° NE night (unlit)
28 May - 01:03:06 10° WSW 01:11:15 30° NW 01:19:38 10° N visible
28 May - 09:44:42 10° N 09:52:16 25° NE 09:59:35 10° E daylight
28 May - 11:47:23 10° NW 11:57:00 69° SW 12:06:16 10° SSE daylight
28 May - 13:59:32 10° WSW 14:02:01 11° SW 14:04:31 10° SSW daylight
28 May - 22:32:09 10° SSW 22:41:22 53° SE 22:50:53 10° NE night (unlit)
29 May - 00:37:35 10° WSW 00:46:02 34° NW 00:54:45 10° NNE visible
29 May - 09:19:56 10° N 09:27:00 22° NE 09:33:53 10° E daylight
29 May - 11:22:07 10° NW 11:31:51 77° SW 11:41:12 10° SE daylight
29 May - 13:32:40 10° WSW 13:36:45 13° SW 13:40:48 10° SSW daylight
29 May - 22:07:11 10° SSW 22:16:12 47° SE 22:25:29 10° ENE night (unlit)
30 May - 00:12:07 10° WSW 00:20:48 38° NW 00:29:48 10° NNE visible
30 May - 08:55:14 10° N 09:01:45 19° NE 09:08:05 10° E daylight
30 May - 10:56:53 10° NW 11:06:41 85° SW 11:16:07 10° SE daylight
30 May - 13:06:20 10° W 13:11:29 16° SW 13:16:36 10° SSW daylight
30 May - 21:42:14 10° SSW 21:51:01 42° SE 22:00:03 10° ENE night (unlit)
30 May - 23:46:42 10° WSW 23:55:35 42° NW 00:04:50 10° NNE visible
31 May - 08:30:39 10° N 08:36:28 17° NE 08:42:09 10° E daylight
31 May - 10:31:41 10° NW 10:41:32 86° NE 10:51:00 10° SE daylight
31 May - 12:40:15 10° W 12:46:15 18° SW 12:52:11 10° S daylight
31 May - 21:17:21 10° SSW 21:25:50 37° SE 21:34:33 10° ENE night (unlit)
31 May - 23:21:20 10° WSW 23:30:24 48° NW 23:39:49 10° NNE visible
01 Jun - 08:06:13 10° NNE 08:11:10 15° NE 08:16:02 10° ENE daylight
01 Jun - 10:06:30 10° NW 10:16:22 78° NE 10:25:50 10° SE daylight
01 Jun - 12:14:20 10° W 12:21:01 21° SW 12:27:37 10° S daylight
01 Jun - 20:52:29 10° S 21:00:39 33° SE 21:09:01 10° ENE visible
01 Jun - 22:56:00 10° SW 23:05:12 53° NW 23:14:46 10° NNE visible
02 Jun - 07:42:02 10° NNE 07:45:51 13° NE 07:49:38 10° ENE daylight
02 Jun - 09:41:23 10° NNW 09:51:12 70° NE 10:00:38 10° SE daylight
02 Jun - 11:48:32 10° W 11:55:48 24° SW 12:02:57 10° S daylight
02 Jun - 20:27:41 10° S 20:35:28 29° SE 20:43:25 10° ENE visible
02 Jun - 22:30:43 10° SW 22:40:01 60° NW 22:49:42 10° NNE visible
03 Jun - 07:18:31 10° NNE 07:20:31 11° NE 07:22:30 10° NE daylight
03 Jun - 09:16:15 10° NNW 09:26:01 63° NE 09:35:24 10° SE daylight
03 Jun - 11:22:49 10° WNW 11:30:36 27° SW 11:38:13 10° S daylight
03 Jun - 20:02:55 10° S 20:10:16 25° SE 20:17:44 10° E visible
03 Jun - 22:05:28 10° SW 22:14:51 67° NW 22:24:36 10° NNE visible
04 Jun - 00:17:18 10° WNW 00:20:15 12° NW 00:23:15 10° NNW visible
04 Jun - 08:51:10 10° NNW 09:00:50 56° NE 09:10:08 10° SE daylight
04 Jun - 10:57:10 10° WNW 11:05:24 31° SW 11:13:26 10° S daylight
04 Jun - 19:38:13 10° S 19:45:03 22° SE 19:51:59 10° E visible
04 Jun - 21:40:16 10° SW 21:49:40 74° NW 21:59:28 10° NNE visible
04 Jun - 23:50:37 10° WNW 23:54:55 14° NW 23:59:18 10° NNW night (unlit)
